Spokane, WA

8:04 PM PDT on August 20, 2017 (GMT -0700)
Spokane International

Weather History for KGEG - June, 2013

Change the Weather History Date:

Friday, June 7, 2013

  Actual Average Record
Temperature  
Mean Temperature 69 °F 60 °F  
Max Temperature 83 °F 72 °F 95 °F (1931)
Min Temperature 54 °F 49 °F 35 °F (2002)
Degree Days  
Heating Degree Days 0 6  
Month to date heating degree days 24 44  
Since 1 June heating degree days 24 44  
Since 1 July heating degree days 6124 6501  
Cooling Degree Days 4 1  
Month to date cooling degree days 13 7  
Year to date cooling degree days 43 21  
Since 1 June cooling degree days 13 7  
Growing Degree Days 20 (Base 50)    
Moisture  
Dew Point 43 °F    
Average Humidity 44    
Maximum Humidity 67    
Minimum Humidity 21    
Precipitation  
Precipitation 0.00 in 0.05 in 2.22 in (1888)
Month to date precipitation 0.10 0.37  
Year to date precipitation 5.03 8.00  
Snow  
Snow 0.00 in 0.00 in 0.00 in (2002)
Month to date snowfall 0.0 0.0  
Since 1 June snowfall 0.0 0.0  
Since 1 July snowfall 43.5 44.9  
Snow Depth 0.00 in    
Sea Level Pressure  
Sea Level Pressure 29.85 in    
Wind  
Wind Speed 17 mph (SW)    
Max Wind Speed 35 mph    
Max Gust Speed 39 mph    
Visibility 10 miles    
Events      
T = Trace of Precipitation, MM = Missing Value Source: NWS Daily Summary

Daily Weather History Graph

Daily Weather History Graph

Search for Another Location

Airport or City:

Trip Planner

Search our weather history database for the weather conditions in past years. The results will help you decide how hot, cold, wet, or windy it might be!

Date:

Astronomy

Jun. 07, 2013 Rise Set
Actual Time 4:53 AM PDT 8:45 PM PDT
Civil Twilight 4:13 AM PDT 9:25 PM PDT
Nautical Twilight 3:18 AM PDT 10:20 PM PDT
Astronomical Twilight 1:56 AM PDT 11:43 PM PDT
Moon 4:24 AM PDT (6/7) 7:58 PM PDT (6/7)
Length of Visible Light 17h 12m
Length of Day
15h 52m
Waning Crescent, 1% of the Moon is Illuminated
Jun 7
Waning Crescent
Jun 8
New
Jun 16
First Quarter
Jun 23
Full
Jun 29
Last Quarter

Hourly Weather History & Observations

Time (PDT) Temp. Dew Point Humidity Pressure Visibility Wind Dir Wind Speed Gust Speed Precip Events Conditions
12:53 AM 64.0 °F 48.0 °F 56% 29.86 in 10.0 mi South 6.9 mph - N/A   Mostly Cloudy
1:53 AM 64.9 °F 46.0 °F 50% 29.85 in 10.0 mi South 3.5 mph - N/A   Scattered Clouds
2:53 AM 60.1 °F 48.9 °F 67% 29.85 in 10.0 mi South 8.1 mph - N/A   Scattered Clouds
3:53 AM 59.0 °F 48.9 °F 69% 29.84 in 10.0 mi SSE 9.2 mph - N/A   Mostly Cloudy
4:53 AM 61.0 °F 46.9 °F 60% 29.85 in 10.0 mi SSW 9.2 mph - N/A   Scattered Clouds
5:53 AM 59.0 °F 45.0 °F 60% 29.87 in 10.0 mi SSW 10.4 mph - N/A   Scattered Clouds
6:53 AM 61.0 °F 44.1 °F 54% 29.87 in 10.0 mi South 11.5 mph - N/A   Scattered Clouds
7:53 AM 62.1 °F 45.0 °F 53% 29.88 in 10.0 mi SSW 13.8 mph - N/A   Mostly Cloudy
8:53 AM 64.9 °F 45.0 °F 48% 29.88 in 10.0 mi SSW 16.1 mph - N/A   Mostly Cloudy
9:53 AM 70.0 °F 44.1 °F 39% 29.88 in 10.0 mi SW 16.1 mph - N/A   Overcast
10:53 AM 73.0 °F 41.0 °F 31% 29.88 in 10.0 mi WSW 16.1 mph - N/A   Mostly Cloudy
11:53 AM 75.9 °F 39.0 °F 26% 29.88 in 10.0 mi SW 17.3 mph 24.2 mph N/A   Mostly Cloudy
12:53 PM 78.1 °F 41.0 °F 27% 29.87 in 10.0 mi WSW 13.8 mph 23.0 mph N/A   Mostly Cloudy
1:53 PM 81.0 °F 44.1 °F 27% 29.83 in 10.0 mi WSW 25.3 mph 31.1 mph N/A   Mostly Cloudy
2:53 PM 82.0 °F 44.1 °F 26% 29.83 in 10.0 mi West 24.2 mph 32.2 mph N/A   Scattered Clouds
3:53 PM 82.0 °F 45.0 °F 27% 29.81 in 10.0 mi WSW 26.5 mph 33.4 mph N/A   Scattered Clouds
4:53 PM 81.0 °F 45.0 °F 28% 29.81 in 10.0 mi West 25.3 mph 32.2 mph N/A   Scattered Clouds
5:53 PM 79.0 °F 35.1 °F 20% 29.81 in 10.0 mi West 27.6 mph 38.0 mph N/A   Partly Cloudy
6:53 PM 77.0 °F 37.9 °F 24% 29.82 in 10.0 mi West 21.9 mph 27.6 mph N/A   Partly Cloudy
7:53 PM 73.9 °F 36.0 °F 25% 29.82 in 10.0 mi WSW 23.0 mph - N/A   Partly Cloudy
8:53 PM 68.0 °F 36.0 °F 31% 29.84 in 10.0 mi WSW 17.3 mph - N/A   Partly Cloudy
9:53 PM 64.9 °F 42.1 °F 43% 29.86 in 10.0 mi WSW 16.1 mph - N/A   Clear
10:53 PM 60.1 °F 42.1 °F 51% 29.87 in 10.0 mi West 18.4 mph - N/A   Clear
11:53 PM 57.0 °F 39.9 °F 53% 29.89 in 10.0 mi WSW 17.3 mph - N/A   Clear